(102) Miriam
ephemeris date magn radius delta ra dec elong phase
Today15 Sep 202514.72.477 AU2.743 AU07h15m+18°25'64.2°21.4°
Opposition13 Jan 202613.32.796 AU1.818 AU07h37m+13°33'172.1°2.8°
(102) Miriam - 2025-09-15
astro.vanbuitenen.nl


 
-1 year
-1 month
-1 day
Now
+1 day
+1 month
+1 year

The interactive orbit chart above shows the body's path through the solar system and its position at the given date. Green and blue lines are shown perpendicular to the ecliptic plane: Green if the path is above the ecliptic plane, blue if it is below. (Left-click and drag to rotate the view; Right-click and drag to move the view; Use scroll wheel to zoom in our out.)

The orbital elements of Miriam are:

            e (Eccentricity)                : 0.2508431
            a (Semimajor axis)              : 2.6623950
            i (Inclination)                 : 5.17409
            Ω (Longitude of ascending node) : 210.76235
            ω (Argument of perihelion)      : 147.35374
            M (Mean anomaly)                : 29.93001
            Epoch                           : 2025 May 05

            L (Longitude of perihelion)     : 178.22226
            B (Latitude of perihelion)      : 2.78848
            P (Orbital period in years)     : 4.34            
        

The light curve chart below shows the estimated development of the minor planet's magnitude.


The all-sky chart below shows the path of the minor planet over the same period as the light curve. The current position is marked yellow.





The following chart shows the path of the minor planet in the next few days. The field of view is optimized for (~10x50) binoculars and finderscopes. A more printer-friendly version of the same chart can be found below.




Ephemerides:
Date       Time       RA (2000)    DEC (2000)    delta   radius  elong  phase   PA    magn
2025-09-15 00:00 UT   07 15 22.0   +18 25 02     2.743    2.477   64.2   21.4   276   14.7 
2025-09-15 20:18 UT   07 16 33.7   +18 21 21     2.735    2.480   64.8   21.5   276   14.7 
2025-09-16 00:00 UT   07 16 46.7   +18 20 40     2.734    2.480   64.9   21.5   276   14.7 
2025-09-17 00:00 UT   07 18 10.7   +18 16 16     2.725    2.483   65.5   21.6   276   14.7 
2025-09-18 00:00 UT   07 19 33.7   +18 11 50     2.716    2.486   66.1   21.7   276   14.7 
2025-09-19 00:00 UT   07 20 56.0   +18 07 22     2.707    2.488   66.8   21.8   276   14.7 
2025-09-20 00:00 UT   07 22 17.4   +18 02 52     2.697    2.491   67.4   21.9   276   14.7 
2025-09-21 00:00 UT   07 23 37.9   +17 58 20     2.688    2.494   68.1   21.9   277   14.7 
2025-09-22 00:00 UT   07 24 57.5   +17 53 46     2.679    2.496   68.7   22.0   277   14.7 
2025-09-23 00:00 UT   07 26 16.3   +17 49 11     2.669    2.499   69.4   22.1   277   14.7 
2025-09-24 00:00 UT   07 27 34.1   +17 44 34     2.660    2.502   70.1   22.1   277   14.7 
2025-09-25 00:00 UT   07 28 51.0   +17 39 56     2.650    2.505   70.7   22.2   277   14.6 
2025-09-26 00:00 UT   07 30 07.0   +17 35 17     2.640    2.507   71.4   22.3   277   14.6 
2025-09-27 00:00 UT   07 31 22.1   +17 30 36     2.631    2.510   72.1   22.3   278   14.6 
2025-09-28 00:00 UT   07 32 36.3   +17 25 54     2.621    2.513   72.7   22.4   278   14.6 
2025-09-29 00:00 UT   07 33 49.4   +17 21 11     2.611    2.516   73.4   22.4   278   14.6 
2025-09-30 00:00 UT   07 35 01.7   +17 16 28     2.601    2.518   74.1   22.5   278   14.6 
2025-10-01 00:00 UT   07 36 12.9   +17 11 43     2.591    2.521   74.8   22.5   278   14.6 
2025-10-02 00:00 UT   07 37 23.2   +17 06 58     2.581    2.524   75.5   22.6   278   14.6 
2025-10-03 00:00 UT   07 38 32.4   +17 02 13     2.571    2.527   76.2   22.6   278   14.6 
2025-10-04 00:00 UT   07 39 40.7   +16 57 26     2.561    2.529   76.9   22.7   279   14.6 
2025-10-05 00:00 UT   07 40 47.9   +16 52 40     2.551    2.532   77.6   22.7   279   14.6 
2025-10-06 00:00 UT   07 41 54.1   +16 47 53     2.541    2.535   78.3   22.7   279   14.6 
2025-10-07 00:00 UT   07 42 59.3   +16 43 06     2.531    2.537   79.0   22.7   279   14.6 
2025-10-08 00:00 UT   07 44 03.4   +16 38 19     2.521    2.540   79.7   22.8   279   14.6 
2025-10-09 00:00 UT   07 45 06.5   +16 33 32     2.510    2.543   80.4   22.8   279   14.6 
2025-10-10 00:00 UT   07 46 08.4   +16 28 44     2.500    2.546   81.2   22.8   280   14.6 
2025-10-11 00:00 UT   07 47 09.3   +16 23 58     2.490    2.548   81.9   22.8   280   14.6 
2025-10-12 00:00 UT   07 48 09.1   +16 19 11     2.479    2.551   82.6   22.8   280   14.6 
2025-10-13 00:00 UT   07 49 07.8   +16 14 25     2.469    2.554   83.4   22.8   280   14.6 


    Terminology:
            
    delta:  distance between minor planet and earth in AU
    radius: distance between minor planet and sun in AU
    magn:   magnitude (brightness) estimate    
    ra:     right ascension in hours (24h = 360deg)
    dec:    declination in degrees
    elong:  elongation in degrees (angle sun-earth-minor planet)    
    phase:  phase angle in degrees (angle sun-minor planet-earth)        
    AU:     Astronomical Unit (mean distance between earth and sun: 149597870.7 km
    

Orbital elements provided by the MPC (Minor Planet Center).
Calculations by a modified version of AAPlus, a C# implementation of the AA+ project by PJ Naughter from the algorithms presented in the book "Astronomical Algorithms" by Jean Meeus.
NGC2000 dso catalog and star labels from VizieR as provided by the Strasbourg astronomical Data Center.
Tycho2 catalog from the ESO archive.